DECAYED
Showing default

CONNECTA T3.2, 58268 (Decayed)

Orbit data source: Space-Track

CONNECTA T3.2, 58268 was a payload satellite owned by Plan-S (TR) in LEO that was launched on Sat, 11 Nov 2023 UTC via an FALCON 9 launch vehicle from the Air Force Western Test Range (AFWTR). Payload-class satellites include a variety of spacecraft equipped with specific instruments for various scientific and technological missions. These include communications satellites like Starlink; space stations such as the ISS; scientific satellites like the Hubble; Earth observation satellites from companies like Planet Labs, Umbra, and HawkEye 360; GPS; miniature CubeSats for education and research; and military/defense satellites.

Not visible in the next 10 days
Identifier
58268, 2023-174N
Orbit
Decayed
Country
Flag of TRTR / TURK
Related business
Manufacturer
Plan-S
Mission
Decayed Commercial Communications
Bus & Motor
CUBESAT 3U, Unknown motor
Mass
5 kg wet, 5 kg dry
Launch date (UTC)
2023-11-11 (3 years ago)
Launch vehicle
FALCON 9
Launch site
Air Force Western Test Range (AFWTR)
Object type
Payload
Rocket body
Debris
Shape & HBR
Box + 2 Pan, 1.7 m
Radar Cross Section
0.080 m², Medium (>0.1 m² and < 1m²)

Expand to show TLE details & history
Last TLE update: 1 year ago

TLE from 1 year ago
0 CONNECTA T3.2
1 58268U 23174N   25255.87816270  .12212691  25353-5  86102-3 0  9991
2 58268  97.3809 346.4148 0014543 273.7940  86.1697 16.39811421103586
Epoch: 2025-09-12T21:04Z
TLE epoch observation values (Epoch: 2025-09-12T21:04:33.257Z)
Latitude
0.00004°
Longitude
38.15666°
Altitude
168.934 km
Speed
7.805 km/s
True Right ascension
23h 05m 39s
True Declination
0° 00' 00"
Sunlit
Object was in full shadow at epoch
Visualization orbit readout
Latitude
Unknown
Longitude
Unknown
Altitude
Unknown
Speed
Unknown
Apparent Right ascension
Unknown
Apparent Declination
Unknown
Sunlit
N/A
Visualization observer readout
Local Sidereal Time
12:57:10
Azimuth
Unknown
Elevation
Unknown
Doppler factor
Unknown
Orbital elements
Apogee altitude
172.624 km
Perigee altitude
153.598 km
Semi-major axis
6,541.248 km
Eccentricity
0.00145
Inclination
97.3809°
RAAN
346.4148°
Arg. of periapsis
273.794°
True anomaly
86.336°
Mean anomaly
86.1697°
Eccentric anomaly
86.25285°
Mean motion
4.10253 °/min
Orbital period
87.75 mins
BSTAR
0.00086102
Loading maneuver chart data...
Computing Atmospheric mass density...

Documentation

Showing up to 5 results
|